Overview Statistics Trail Chart Weather Telemetry Raw packets
 

This is the latest recevied weather packets stored in our database for station/object VE3TEJ. If no packets are shown the sender has not sent any weather packets the latest 10 day(s).

<< 130 131 132 133 134 >>
Time Temp. Humidity Pressure Rain* Wind** Luminosity Snow
1787770925 26.67° C 57% 1019.5 hPa 0 mm - - -
1787770626 26.67° C 56% 1019.4 hPa 0 mm - - -
1787770324 26.67° C 56% 1019.6 hPa 0 mm - - -
1787770024 26.11° C 58% 1019.6 hPa 0 mm - - -
1787770007 26.11° C 58% 1019.8 hPa 0 mm - - -
1787769723 26.67° C 59% 1019.4 hPa 0 mm - - -
1787769423 26.67° C 58% 1019.6 hPa 0 mm - - -
1787769123 26.67° C 56% 1019.7 hPa 0 mm - - -
1787768824 26.67° C 56% 1019.8 hPa 0 mm - - -
1787768524 26.67° C 57% 1019.9 hPa 0 mm - - -
1787768224 26.67° C 57% 1020 hPa 0 mm - - -
1787767924 26.67° C 60% 1019.9 hPa 0 mm - - -
1787767623 26.67° C 59% 1019.9 hPa 0 mm - - -
1787767325 26.67° C 61% 1020 hPa 0 mm - - -
1787767025 26.67° C 61% 1020.1 hPa 0 mm - - -
1787766724 26.67° C 60% 1020.2 hPa 0 mm - - -
1787766424 26.67° C 61% 1020.2 hPa 0 mm - - -
1787766124 26.11° C 61% 1020.2 hPa 0 mm - - -
1787765823 26.11° C 60% 1020.3 hPa 0 mm - - -
1787765523 26.11° C 62% 1020.1 hPa 0 mm - - -
1787765225 26.11° C 61% 1020.3 hPa 0 mm - - -
1787764925 26.11° C 63% 1020.2 hPa 0 mm - - -
1787764624 26.11° C 62% 1020.2 hPa 0 mm - - -
1787764324 26.11° C 62% 1020.4 hPa 0 mm - - -
1787764023 25.56° C 64% 1020.4 hPa 0 mm - - -

* Rain latest hour (hover to see other rain measurements)
** Current wind speed in m/s (hover to see current wind gust speed)